This is the latest recevied weather packets stored in our database for station/object N4CRH-13. If no packets are shown the sender has not sent any weather packets the latest 10 day(s).
| Time | Temp. | Humidity | Pressure | Rain* | Wind** | Luminosity | Snow |
|---|---|---|---|---|---|---|---|
| 1778112058 | 0.56° C | 87% | 1295.4 hPa | 0 mm | - | 94 W/m² | - |
| 1778111755 | 0.56° C | 87% | 1295.4 hPa | 0 mm | - | 87 W/m² | - |
| 1778111450 | 0.56° C | 87% | 1295.7 hPa | 0 mm | - | 104 W/m² | - |
| 1778111148 | 0° C | 87% | 1295.6 hPa | 0 mm | - | 122 W/m² | - |
| 1778110845 | 0.56° C | 86% | 1295.7 hPa | 0 mm | - | 79 W/m² | - |
| 1778110542 | 0.56° C | 84% | 1295.3 hPa | 0 mm | - | 66 W/m² | - |
| 1778110239 | 0.56° C | 84% | 1295.6 hPa | 0 mm | - | 240 W/m² | - |
| 1778109935 | 1.11° C | 82% | 1295.4 hPa | 0 mm | - | 248 W/m² | - |
| 1778109631 | 0.56° C | 83% | 1295.4 hPa | 0 mm | - | 260 W/m² | - |
| 1778109328 | 0.56° C | 86% | 1295.3 hPa | 0 mm | - | 277 W/m² | - |
| 1778109026 | 1.11° C | 85% | 1295.3 hPa | 0 mm | - | 302 W/m² | - |
| 1778108722 | 0.56° C | 86% | 1295.4 hPa | 0 mm | - | 196 W/m² | - |
| 1778108420 | 0° C | 86% | 1295.2 hPa | 0 mm | - | 301 W/m² | - |
| 1778108117 | 0° C | 88% | 1295.3 hPa | 0 mm | - | 221 W/m² | - |
| 1778107813 | 0° C | 88% | 1295.6 hPa | 0 mm | - | 234 W/m² | - |
| 1778107510 | -0.56° C | 89% | 1295.6 hPa | 0 mm | - | 262 W/m² | - |
| 1778107206 | -1.11° C | 90% | 1295.6 hPa | 0 mm | - | 218 W/m² | - |
| 1778106902 | -1.11° C | 94% | 1295.6 hPa | 0 mm | - | 230 W/m² | - |
| 1778106599 | -1.11° C | 99% | 1295.8 hPa | 0 mm | - | 227 W/m² | - |
| 1778106296 | 0° C | 99% | 1295.8 hPa | 0 mm | - | 256 W/m² | - |
| 1778105992 | 0° C | 99% | 1295.8 hPa | 1.78 mm | - | 241 W/m² | - |
| 1778105690 | 0.56° C | 99% | 1295.8 hPa | 1.78 mm | - | 345 W/m² | - |
| 1778105388 | 0° C | 98% | 1296.2 hPa | 0 mm | - | 484 W/m² | - |
| 1778105083 | 0° C | 98% | 1295.9 hPa | 0 mm | - | 306 W/m² | - |
| 1778104779 | -0.56° C | 97% | 1296 hPa | 0 mm | - | 448 W/m² | - |
* Rain latest hour (hover to see other rain measurements)
** Current wind speed in m/s (hover to see current wind gust speed)